Burnsville, North Carolina, United States (28714)
Lat: 35.92N, Lon: 82.3W
Wx Zone: NCZ049
Local Info
Past Weather Observations for Friday, December 19, 2014

NOTE: This archive is for the closest National Weather Service station to Burnsville. Information may differ from the station used for current weather conditions.

Click here for Long-term Archive

Time Weather Temperature Dewpoint Humidity Pressure Winds Precip Visibility
23:54
Overcast
39°F / 4°C 23°F / -5°C 52% 30.15 in
(1021 mb)
Calm - 10SM
22:54
Mostly Cloudy
39°F / 4°C 25°F / -4°C 56% 30.15 in
(1021 mb)
Calm - 10SM
21:54
Clear
39°F / 4°C 25°F / -4°C 56% 30.15 in
(1021 mb)
NNW 6.9 mph
(NNW 11 kph)
- 10SM
20:54
Clear
41°F / 5°C 27°F / -3°C 57% 30.15 in
(1021 mb)
NNW 10.4 mph
(NNW 17 kph)
- 10SM
19:54
Clear
43°F / 6°C 27°F / -3°C 53% 30.15 in
(1021 mb)
NNW 13.8 mph
(NNW 22 kph)
- 10SM
18:54
Clear
43°F / 6°C 27°F / -3°C 53% 30.12 in
(1020 mb)
NNW 12.7 mph
(NNW 20 kph)
- 10SM
17:54
Clear
45°F / 7°C 28°F / -2°C 53% 30.12 in
(1020 mb)
N 9.2 mph
(N 15 kph)
- 10SM
16:54
Clear
46°F / 8°C 28°F / -2°C 50% 30.09 in
(1019 mb)
NNW 9.2 mph
(NNW 15 kph)
- 10SM
15:54
Clear
48°F / 9°C 28°F / -2°C 46% 30.09 in
(1019 mb)
NNW 9.2 mph
(NNW 15 kph)
- 10SM
14:54
Clear
52°F / 11°C 28°F / -2°C 41% 30.09 in
(1019 mb)
NNW 5.8 mph
(NNW 9 kph)
- 10SM
13:54
Clear
50°F / 10°C 28°F / -2°C 43% 30.09 in
(1019 mb)
Variable 4.6 mph
(Variable 7 kph)
- 10SM
12:54
Clear
50°F / 10°C 28°F / -2°C 43% 30.12 in
(1020 mb)
NNW 5.8 mph
(NNW 9 kph)
- 10SM
11:54
Clear
48°F / 9°C 28°F / -2°C 46% 30.12 in
(1020 mb)
N 6.9 mph
(N 11 kph)
- 10SM
10:54
Clear
45°F / 7°C 25°F / -4°C 46% 30.15 in
(1021 mb)
N 5.8 mph
(N 9 kph)
- 10SM
09:54
Clear
41°F / 5°C 23°F / -5°C 49% 30.18 in
(1022 mb)
N 10.4 mph
(N 17 kph)
- 10SM
08:54
Clear
39°F / 4°C 21°F / -6°C 48% 30.15 in
(1021 mb)
N 9.2 mph
(N 15 kph)
- 10SM
07:54
Clear
36°F / 2°C 23°F / -5°C 60% 30.15 in
(1021 mb)
NNW 10.4 mph
(NNW 17 kph)
- 10SM
06:54
Clear
36°F / 2°C 23°F / -5°C 60% 30.12 in
(1020 mb)
NNW 16.1 mph
(NNW 26 kph)
- 10SM
05:54
Clear
36°F / 2°C 25°F / -4°C 65% 30.12 in
(1020 mb)
NNW 12.7 mph
(NNW 20 kph)
- 10SM
04:54
Clear
36°F / 2°C 27°F / -3°C 70% 30.12 in
(1020 mb)
NW 11.5 mph
(NW 19 kph)
- 10SM
03:54
Clear
36°F / 2°C 27°F / -3°C 70% 30.09 in
(1019 mb)
NNW 13.8 mph
(NNW 22 kph)
- 10SM
02:54
Clear
36°F / 2°C 27°F / -3°C 70% 30.09 in
(1019 mb)
NW 15 mph
(NW 24 kph)
- 10SM
01:54
Clear
36°F / 2°C 27°F / -3°C 70% 30.09 in
(1019 mb)
NNW 8.1 mph
(NNW 13 kph)
- 10SM
00:54
Partly Cloudy
37°F / 3°C 25°F / -4°C 60% 30.09 in
(1019 mb)
N 11.5 mph
(N 19 kph)
- 10SM
Time Weather Temperature Dewpoint Humidity Pressure Winds Precip Visibility


Weather for websites

WeatherForYou.com, LLC is not responsible for any damages or problems caused by this service. Current weather conditions are obtained from the closest station including government and personal stations which may have varying degrees of accuracy. Weather forecasts are derived from the NOAA NDFD. Like all things, this site belongs to Jesus Christ... He just trusts me to maintain it. If you have any questions or comments email webmaster@weatherforyou.com

Copyright © 2014, WeatherForYou.com LLC. All rights reserved.